Weather History for Cherokee, IA

Change the Weather History Date:

Monday, November 5, 2012

  Actual Average Record
Temperature  
Mean Temperature 40 °F -  
Max Temperature 42 °F 49 °F 76 °F (1975)
Min Temperature 39 °F 26 °F -5 °F (1991)
Degree Days  
Heating Degree Days 24    
Moisture  
Dew Point 39 °F    
Average Humidity 97    
Maximum Humidity 99    
Minimum Humidity 93    
Precipitation  
Precipitation 0.05 in - - ()
Sea Level Pressure  
Sea Level Pressure 30.10 in    
Wind  
Wind Speed 5 mph (NNW)    
Max Wind Speed 12 mph    
Max Gust Speed -    
Visibility 4 miles    
Events Rain    
Averages and records for this station are not official NWS values.
T = Trace of Precipitation, MM = Missing Value Source: NWS Daily Summary

Daily Weather History Graph

Daily Weather History Graph

Search for Another Location

Airport:

Trip Planner

Search our weather history database for the weather conditions in past years. The results will help you decide how hot, cold, wet, or windy it might be!

Date:

Astronomy

Nov. 05, 2012 Rise Set
Actual Time 7:01 AM CST 5:09 PM CST
Civil Twilight 6:32 AM CST 5:38 PM CST
Nautical Twilight 5:58 AM CST 6:12 PM CST
Astronomical Twilight 5:25 AM CST 6:45 PM CST
Moon 10:47 PM CST (11/5) 12:22 PM CST (11/5)
Length of Visible Light 11h 06m
Length of Day
10h 07m
Waning Gibbous, 62% of the Moon is Illuminated
Nov 5
Waning Gibbous
Nov 6
Last Quarter
Nov 13
New
Nov 20
First Quarter
Nov 28
Full

Hourly Weather History & Observations

Time (CST) Temp. Windchill Dew Point Humidity Pressure Visibility Wind Dir Wind Speed Gust Speed Precip Events Conditions
12:15 AM 42.1 °F 38.4 °F 41.4 °F 97% 30.05 in 4.0 mi NE 5.8 mph - N/A   Light Drizzle
12:35 AM 42.1 °F 38.4 °F 41.4 °F 97% 30.05 in 4.0 mi NNE 5.8 mph - N/A   Light Drizzle
12:55 AM 42.1 °F 38.4 °F 41.4 °F 97% 30.06 in 4.0 mi NE 5.8 mph - N/A   Light Drizzle
1:15 AM 42.1 °F 38.4 °F 41.4 °F 97% 30.06 in 4.0 mi NNE 5.8 mph - N/A   Drizzle
1:35 AM 42.1 °F 38.4 °F 41.5 °F 98% 30.06 in 4.0 mi NNE 5.8 mph - N/A Rain Light Rain
1:55 AM 42.1 °F 38.4 °F 41.5 °F 98% 30.06 in 4.0 mi NNE 5.8 mph - 0.01 in Rain Light Rain
2:15 AM 42.1 °F 38.4 °F 41.5 °F 98% 30.07 in 4.0 mi NNE 5.8 mph - N/A Rain Light Rain
2:35 AM 41.9 °F 38.2 °F 41.4 °F 98% 30.07 in 4.0 mi NNE 5.8 mph - 0.01 in Rain Rain
2:55 AM 41.9 °F 37.5 °F 41.5 °F 99% 30.08 in 4.0 mi North 6.9 mph - 0.01 in Rain Rain
3:15 AM 41.5 °F 37.1 °F 41.2 °F 99% 30.08 in 4.0 mi NNE 6.9 mph - N/A Rain Light Rain
3:35 AM 41.4 °F 36.8 °F 41.0 °F 99% 30.08 in 4.0 mi North 6.9 mph - N/A Rain Light Rain
3:55 AM 41.4 °F 36.2 °F 41.0 °F 99% 30.09 in 4.0 mi North 8.1 mph - 0.01 in Rain Light Rain
4:15 AM 41.4 °F 36.2 °F 41.0 °F 99% 30.09 in 4.0 mi North 8.1 mph - N/A Rain Light Rain
4:35 AM 41.4 °F 36.2 °F 41.0 °F 99% 30.10 in 4.0 mi North 8.1 mph - 0.01 in Rain Light Rain
4:55 AM 41.4 °F 35.7 °F 41.0 °F 99% 30.10 in 5.0 mi North 9.2 mph - 0.02 in Rain Light Rain
5:15 AM 41.0 °F 35.8 °F 40.3 °F 97% 30.10 in 5.0 mi North 8.1 mph - N/A Rain Light Rain
5:35 AM 40.3 °F 35.5 °F 39.9 °F 99% 30.11 in 5.0 mi North 6.9 mph - N/A   Drizzle
5:55 AM 40.3 °F 34.4 °F 39.7 °F 98% 30.11 in 5.0 mi NNE 9.2 mph - N/A   Light Drizzle
6:15 AM 40.1 °F 35.3 °F 39.7 °F 99% 30.11 in 5.0 mi NNE 6.9 mph - N/A   Drizzle
6:35 AM 40.1 °F 35.3 °F 39.7 °F 99% 30.11 in 5.0 mi North 6.9 mph - N/A   Light Drizzle
6:55 AM 40.1 °F 35.3 °F 39.6 °F 98% 30.12 in 5.0 mi North 6.9 mph - N/A   Light Drizzle
7:15 AM 39.7 °F 34.3 °F 39.4 °F 99% 30.13 in 5.0 mi North 8.1 mph - N/A   Light Drizzle
7:35 AM 39.6 °F 34.7 °F 39.2 °F 99% 30.13 in 5.0 mi North 6.9 mph - N/A   Light Drizzle
7:55 AM 39.6 °F 34.7 °F 39.2 °F 99% 30.14 in 5.0 mi North 6.9 mph - N/A Rain Light Rain
8:15 AM 39.6 °F 34.0 °F 39.2 °F 99% 30.14 in 4.0 mi North 8.1 mph - N/A   Light Drizzle
8:35 AM 39.6 °F 34.0 °F 39.2 °F 99% 30.14 in 4.0 mi North 8.1 mph - N/A   Light Drizzle
8:55 AM 39.4 °F 35.2 °F 39.0 °F 99% 30.15 in 5.0 mi North 5.8 mph - N/A   Light Drizzle
9:15 AM 39.6 °F 35.4 °F 39.2 °F 99% 30.15 in 4.0 mi NNE 5.8 mph - N/A   Overcast
9:35 AM 39.4 °F 34.5 °F 38.8 °F 98% 30.16 in 4.0 mi North 6.9 mph - N/A   Overcast
9:55 AM 39.4 °F 35.2 °F 39.0 °F 99% 30.16 in 3.0 mi North 5.8 mph - N/A   Overcast
10:15 AM 39.7 °F 36.5 °F 39.2 °F 98% 30.16 in 3.0 mi North 4.6 mph - N/A   Overcast
10:35 AM 40.1 °F 38.0 °F 39.4 °F 97% 30.16 in 3.0 mi NNE 3.5 mph - N/A   Overcast
10:55 AM 40.1 °F - 39.4 °F 97% 30.16 in 3.0 mi Calm Calm - N/A   Overcast
11:15 AM 40.6 °F - 40.1 °F 98% 30.16 in 4.0 mi Calm Calm - N/A   Overcast
11:35 AM 41.0 °F - 39.7 °F 95% 30.16 in 5.0 mi Calm Calm - N/A   Overcast
11:55 AM 41.0 °F - 39.7 °F 95% 30.15 in 5.0 mi Calm Calm - N/A   Overcast
12:15 PM 41.0 °F 37.1 °F 39.7 °F 95% 30.15 in 5.0 mi West 5.8 mph - N/A   Overcast
12:35 PM 40.6 °F 38.6 °F 39.6 °F 96% 30.14 in 4.0 mi WNW 3.5 mph - N/A   Overcast
12:55 PM 40.5 °F - 39.4 °F 96% 30.14 in 3.0 mi Calm Calm - N/A   Overcast
1:15 PM 40.6 °F 37.5 °F 39.9 °F 97% 30.14 in 2.5 mi WNW 4.6 mph - N/A   Overcast
1:35 PM 40.5 °F 37.3 °F 39.7 °F 97% 30.14 in 3.0 mi NW 4.6 mph - N/A   Overcast
1:55 PM 40.1 °F 36.1 °F 39.2 °F 97% 30.13 in 1.5 mi NW 5.8 mph - N/A   Overcast
2:15 PM 39.6 °F 37.4 °F 39.2 °F 99% 30.12 in 1.8 mi NW 3.5 mph - N/A   Overcast
2:35 PM 39.7 °F - 39.2 °F 98% 30.11 in 2.5 mi Calm Calm - N/A   Overcast
2:55 PM 39.4 °F - 38.8 °F 98% 30.11 in 2.5 mi Calm Calm - N/A   Overcast
3:15 PM 39.6 °F 37.4 °F 39.0 °F 98% 30.11 in 3.0 mi NW 3.5 mph - N/A   Overcast
3:35 PM 39.7 °F 36.5 °F 38.8 °F 97% 30.12 in 4.0 mi NW 4.6 mph - N/A   Overcast
3:55 PM 39.6 °F 37.4 °F 38.7 °F 97% 30.13 in 4.0 mi NW 3.5 mph - N/A   Overcast
4:15 PM 39.6 °F 36.3 °F 38.5 °F 96% 30.12 in 5.0 mi WNW 4.6 mph - N/A   Overcast
4:35 PM 39.6 °F - 38.3 °F 95% 30.11 in 5.0 mi Calm Calm - N/A   Overcast
4:55 PM 39.6 °F - 37.8 °F 93% 30.11 in 5.0 mi Calm Calm - N/A   Overcast
5:15 PM 39.6 °F - 37.9 °F 94% 30.10 in 7.0 mi Calm Calm - N/A   Overcast
5:35 PM 39.6 °F - 38.3 °F 95% 30.10 in 5.0 mi Calm Calm - N/A   Overcast
5:55 PM 39.6 °F - 38.3 °F 95% 30.09 in 7.0 mi Calm Calm - N/A   Overcast
6:15 PM 39.6 °F - 38.3 °F 95% 30.10 in 5.0 mi Calm Calm - N/A   Overcast
6:35 PM 39.6 °F - 38.5 °F 96% 30.11 in 5.0 mi Calm Calm - N/A   Overcast
6:55 PM 39.6 °F 37.4 °F 38.5 °F 96% 30.10 in 5.0 mi South 3.5 mph - N/A   Overcast
7:15 PM 39.6 °F 36.3 °F 38.5 °F 96% 30.09 in 5.0 mi SSW 4.6 mph - N/A   Overcast
7:35 PM 39.4 °F 37.2 °F 38.5 °F 97% 30.08 in 5.0 mi South 3.5 mph - N/A   Overcast
7:55 PM 39.4 °F 36.1 °F 38.5 °F 97% 30.08 in 5.0 mi South 4.6 mph - N/A   Overcast
8:15 PM 39.4 °F 36.1 °F 38.7 °F 97% 30.08 in 5.0 mi SW 4.6 mph - N/A   Overcast
8:35 PM 39.4 °F 36.1 °F 38.7 °F 97% 30.07 in 5.0 mi South 4.6 mph - N/A   Overcast
8:55 PM 39.6 °F 35.4 °F 38.7 °F 97% 30.07 in 5.0 mi SSW 5.8 mph - N/A   Overcast
9:15 PM 39.4 °F 34.5 °F 38.5 °F 97% 30.07 in 5.0 mi SSW 6.9 mph - N/A   Overcast
9:35 PM 39.4 °F 34.5 °F 38.5 °F 97% 30.06 in 5.0 mi SW 6.9 mph - N/A   Overcast
9:55 PM 39.4 °F 35.2 °F 38.3 °F 96% 30.04 in 5.0 mi South 5.8 mph - N/A   Overcast
10:15 PM 39.2 °F 34.2 °F 38.3 °F 97% 30.04 in 5.0 mi SSW 6.9 mph - N/A   Overcast
10:35 PM 39.2 °F 33.6 °F 38.3 °F 97% 30.03 in 5.0 mi SW 8.1 mph - N/A   Overcast
10:55 PM 39.2 °F 33.6 °F 37.8 °F 95% 30.01 in 5.0 mi South 8.1 mph - N/A   Overcast
11:15 PM 39.2 °F 33.6 °F 37.6 °F 94% 29.99 in 5.0 mi South 8.1 mph - N/A   Overcast
11:35 PM 39.2 °F 32.0 °F 37.4 °F 93% 29.99 in 7.0 mi SSW 11.5 mph - N/A   Overcast
11:55 PM 39.2 °F 32.5 °F 37.4 °F 93% 29.98 in 7.0 mi South 10.4 mph - N/A   Overcast